QPF
0.00 0.00 0.00 0.00 0.00 0.00 0.00 0.00 0.00 0.00 0.00 0.00 0.00 0.00 0.00 0.00 0.00 0.00 0.00 0.00 0.00 0.00 0.00 0.00 0.00 0.00 0.00 0.00 0.00 0.00 0.00 0.00 0.01 0.01 0.00 0.00 0.00 0.00 0.00 0.00 0.01 0.01 0.00 0.00 0.00 0.00 0.00 0.00 0.00
0.00 0.00 0.00 0.00 0.00 0.00 0.00 0.00 0.00 0.00 0.00 0.00 0.00 0.00 0.00 0.00 0.00 0.00 0.00 0.00 0.00 0.00 0.00 0.00 0.00 0.00 0.00 0.00 0.00 0.00 0.00 0.00 0.00 0.00 0.00 0.00 0.00 0.00 0.00 0.00 0.01 0.02 0.00 0.00 0.00 0.00 0.00 0.00 0.00
0.00 0.00 0.00 0.00 0.00 0.00 0.00 0.00 0.00 0.00 0.00 0.00 0.00 0.00 0.00 0.00 0.00 0.00 0.00 0.00 0.00 0.00 0.00 0.00 0.00 0.00 0.00 0.00 0.00 0.00 0.00 0.00 0.00 0.00 0.00 0.00 0.01 0.00 0.00 0.00 0.01 0.03 0.00 0.00 0.00 0.00 0.00 0.00 0.00
0.00 0.00 0.00 0.00 0.00 0.00 0.00 0.00 0.00 0.00 0.00 0.00 0.00 0.00 0.00 0.00 0.00 0.00 0.00 0.00 0.00 0.00 0.00 0.00 0.00 0.00 0.00 0.00 0.00 0.00 0.00 0.00 0.00 0.00 0.00 0.00 0.00 0.00 0.00 0.00 0.03 0.03 0.00 0.00 0.00 0.00 0.00 0.00 0.00
0.00 0.00 0.00 0.00 0.00 0.00 0.00 0.00 0.00 0.00 0.00 0.00 0.00 0.00 0.00 0.00 0.00 0.00 0.00 0.00 0.00 0.00 0.00 0.00 0.00 0.00 0.00 0.00 0.00 0.00 0.00 0.00 0.00 0.00 0.00 0.00 0.00 0.00 0.00 0.00 0.03 0.05 0.01 0.00 0.00 0.00 0.00 0.00 0.00
0.00 0.00 0.00 0.00 0.00 0.00 0.00 0.00 0.00 0.00 0.00 0.00 0.00 0.00 0.00 0.00 0.00 0.00 0.00 0.00 0.00 0.00 0.00 0.00 0.00 0.00 0.00 0.00 0.00 0.00 0.00 0.00 0.00 0.00 0.00 0.00 0.00 0.00 0.01 0.01 0.01 0.04 0.02 0.00 0.00 0.00 0.00 0.00 0.00
0.00 0.00 0.00 0.00 0.00 0.00 0.00 0.00 0.00 0.00 0.00 0.00 0.00 0.00 0.00 0.00 0.00 0.00 0.00 0.00 0.00 0.00 0.00 0.00 0.00 0.00 0.00 0.00 0.00 0.00 0.00 0.00 0.00 0.00 0.00 0.00 0.00 0.01 0.00 0.00 0.00 0.02 0.03 0.01 0.00 0.00 0.00 0.00 0.00
0.00 0.00 0.00 0.00 0.00 0.00 0.00 0.00 0.00 0.00 0.00 0.00 0.00 0.00 0.00 0.00 0.00 0.01 0.01 0.00 0.00 0.00 0.00 0.00 0.00 0.00 0.00 0.00 0.00 0.00 0.00 0.00 0.00 0.00 0.00 0.00 0.00 0.02 0.00 0.00 0.00 0.01 0.00 0.01 0.00 0.00 0.00 0.00 0.00
0.00 0.00 0.00 0.00 0.00 0.00 0.00 0.00 0.00 0.00 0.00 0.00 0.00 0.00 0.00 0.00 0.00 0.01 0.01 0.01 0.00 0.00 0.00 0.00 0.00 0.00 0.00 0.00 0.00 0.00 0.01 0.00 0.00 0.00 0.00 0.00 0.00 0.00 0.00 0.00 0.01 0.02 0.01 0.01 0.00 0.00 0.00 0.00 0.00
0.00 0.00 0.00 0.00 0.00 0.00 0.00 0.00 0.00 0.00 0.00 0.00 0.00 0.00 0.00 0.00 0.00 0.00 0.00 0.00 0.00 0.00 0.00 0.00 0.00 0.00 0.00 0.00 0.00 0.00 0.00 0.00 0.00 0.00 0.00 0.00 0.00 0.01 0.02 0.02 0.04 0.03 0.01 0.00 0.00 0.00 0.00 0.00 0.00
0.00 0.00 0.00 0.00 0.00 0.00 0.00 0.00 0.00 0.00 0.00 0.00 0.00 0.00 0.00 0.00 0.00 0.00 0.00 0.00 0.01 0.02 0.00 0.00 0.00 0.00 0.00 0.00 0.00 0.00 0.00 0.00 0.00 0.00 0.00 0.00 0.00 0.02 0.06 0.09 0.12 0.04 0.06 0.01 0.02 0.01 0.00 0.00 0.00
0.00 0.00 0.00 0.00 0.00 0.00 0.00 0.00 0.00 0.00 0.00 0.00 0.00 0.00 0.00 0.00 0.00 0.00 0.00 0.00 0.00 0.00 0.00 0.00 0.00 0.00 0.00 0.01 0.00 0.00 0.00 0.02 0.01 0.03 0.04 0.03 0.00 0.05 0.10 0.13 0.17 0.02 0.03 0.00 0.01 0.04 0.00 0.00 0.00
0.00 0.00 0.00 0.00 0.00 0.00 0.00 0.00 0.00 0.00 0.00 0.00 0.00 0.00 0.00 0.00 0.00 0.00 0.00 0.00 0.00 0.00 0.00 0.00 0.00 0.00 0.00 0.00 0.01 0.01 0.05 0.07 0.04 0.00 0.09 0.10 0.01 0.01 0.02 0.04 0.06 0.01 0.03 0.02 0.01 0.05 0.02 0.00 0.00
0.00 0.00 0.00 0.00 0.00 0.00 0.00 0.00 0.00 0.00 0.00 0.00 0.00 0.00 0.00 0.00 0.00 0.00 0.00 0.00 0.00 0.00 0.00 0.00 0.00 0.00 0.00 0.00 0.00 0.00 0.01 0.00 0.00 0.00 0.00 0.01 0.00 0.00 0.00 0.00 0.00 0.00 0.00 0.00 0.00 0.00 0.01 0.00 0.00
0.00 0.00 0.00 0.00 0.00 0.00 0.00 0.00 0.00 0.00 0.00 0.00 0.00 0.00 0.00 0.00 0.00 0.00 0.00 0.00 0.00 0.00 0.00 0.00 0.00 0.01 0.02 0.01 0.00 0.00 0.00 0.00 0.00 0.00 0.00 0.00 0.00 0.00 0.00 0.00 0.00 0.00 0.00 0.00 0.00 0.00 0.01 0.00 0.00
0.00 0.00 0.00 0.00 0.00 0.00 0.00 0.00 0.00 0.00 0.00 0.00 0.00 0.00 0.00 0.00 0.00 0.00 0.00 0.00 0.00 0.00 0.00 0.00 0.00 0.00 0.00 0.00 0.00 0.00 0.00 0.00 0.00 0.00 0.00 0.00 0.00 0.00 0.00 0.00 0.00 0.00 0.00 0.00 0.00 0.00 0.01 0.00 0.00
0.00 0.00 0.00 0.00 0.00 0.00 0.00 0.00 0.00 0.00 0.00 0.00 0.00 0.00 0.00 0.00 0.00 0.00 0.00 0.00 0.00 0.00 0.00 0.00 0.00 0.00 0.00 0.00 0.00 0.00 0.00 0.00 0.00 0.00 0.00 0.00 0.00 0.00 0.00 0.00 0.00 0.00 0.00 0.00 0.00 0.02 0.02 0.00 0.00
0.00 0.00 0.00 0.00 0.00 0.00 0.00 0.00 0.00 0.00 0.00 0.00 0.00 0.00 0.00 0.00 0.00 0.00 0.00 0.00 0.00 0.00 0.00 0.00 0.00 0.00 0.00 0.00 0.00 0.00 0.00 0.00 0.00 0.00 0.00 0.00 0.00 0.00 0.00 0.00 0.00 0.00 0.00 0.00 0.00 0.00 0.00 0.00 0.00
0.00 0.00 0.00 0.00 0.00 0.00 0.00 0.00 0.00 0.00 0.00 0.00 0.00 0.00 0.00 0.00 0.00 0.00 0.00 0.00 0.00 0.00 0.00 0.00 0.00 0.00 0.00 0.00 0.00 0.00 0.00 0.00 0.00 0.00 0.00 0.00 0.00 0.00 0.00 0.00 0.00 0.00 0.00 0.00 0.00 0.00 0.00 0.00 0.00
0.00 0.00 0.00 0.00 0.00 0.00 0.00 0.00 0.00 0.00 0.00 0.00 0.00 0.00 0.00 0.00 0.00 0.00 0.00 0.00 0.00 0.00 0.00 0.00 0.00 0.00 0.00 0.00 0.00 0.00 0.00 0.00 0.00 0.00 0.00 0.00 0.00 0.00 0.00 0.00 0.00 0.00 0.00 0.00 0.00 0.00 0.00 0.00 0.00
0.00 0.00 0.00 0.00 0.00 0.00 0.00 0.00 0.00 0.00 0.00 0.00 0.00 0.00 0.00 0.00 0.00 0.00 0.00 0.00 0.00 0.00 0.00 0.00 0.00 0.00 0.00 0.00 0.00 0.00 0.00 0.00 0.00 0.00 0.00 0.00 0.00 0.00 0.00 0.00 0.00 0.00 0.00 0.00 0.00 0.00 0.00 0.01 0.01
0.00 0.00 0.00 0.00 0.00 0.00 0.00 0.00 0.00 0.00 0.00 0.00 0.00 0.00 0.00 0.00 0.00 0.00 0.00 0.00 0.00 0.00 0.00 0.00 0.00 0.00 0.00 0.00 0.00 0.00 0.00 0.00 0.00 0.00 0.00 0.00 0.00 0.00 0.00 0.00 0.00 0.00 0.00 0.00 0.00 0.00 0.00 0.00 0.01
0.00 0.00 0.00 0.00 0.00 0.00 0.00 0.00 0.00 0.00 0.00 0.00 0.00 0.00 0.00 0.00 0.00 0.00 0.00 0.00 0.00 0.00 0.00 0.00 0.00 0.00 0.00 0.00 0.00 0.00 0.00 0.00 0.00 0.00 0.00 0.00 0.00 0.00 0.00 0.00 0.00 0.00 0.00 0.00 0.00 0.00 0.00 0.00 0.01
0.00 0.00 0.00 0.00 0.00 0.00 0.00 0.00 0.00 0.00 0.00 0.00 0.00 0.00 0.00 0.00 0.00 0.00 0.00 0.00 0.00 0.00 0.00 0.00 0.00 0.00 0.00 0.00 0.00 0.00 0.00 0.00 0.00 0.00 0.00 0.00 0.00 0.00 0.00 0.00 0.00 0.00 0.00 0.00 0.00 0.00 0.00 0.01 0.02
0.00 0.00 0.02 0.02 0.00 0.00 0.00 0.00 0.00 0.00 0.00 0.00 0.00 0.00 0.00 0.00 0.00 0.00 0.00 0.00 0.00 0.00 0.00 0.00 0.00 0.00 0.00 0.00 0.00 0.00 0.00 0.00 0.00 0.00 0.00 0.00 0.00 0.00 0.00 0.00 0.00 0.00 0.00 0.00 0.00 0.01 0.00 0.01 0.02
0.00 0.00 0.01 0.03 0.00 0.00 0.00 0.00 0.00 0.00 0.00 0.00 0.00 0.00 0.00 0.00 0.00 0.00 0.00 0.00 0.00 0.00 0.00 0.00 0.00 0.00 0.00 0.00 0.00 0.00 0.00 0.00 0.00 0.00 0.00 0.00 0.00 0.00 0.00 0.00 0.00 0.00 0.00 0.00 0.00 0.00 0.00 0.00 0.00
0.00 0.00 0.00 0.00 0.00 0.01 0.00 0.00 0.00 0.00 0.00 0.00 0.00 0.00 0.00 0.00 0.00 0.00 0.00 0.00 0.00 0.00 0.00 0.00 0.00 0.00 0.00 0.00 0.00 0.00 0.00 0.00 0.00 0.00 0.00 0.00 0.00 0.00 0.00 0.00 0.00 0.00 0.00 0.00 0.00 0.00 0.00 0.00 0.00
0.01 0.01 0.00 0.00 0.02 0.01 0.00 0.00 0.00 0.00 0.00 0.00 0.00 0.00 0.00 0.00 0.00 0.00 0.00 0.00 0.00 0.00 0.00 0.00 0.00 0.00 0.00 0.00 0.00 0.00 0.00 0.00 0.00 0.00 0.00 0.00 0.00 0.00 0.00 0.00 0.00 0.00 0.00 0.00 0.00 0.00 0.00 0.00 0.00
0.00 0.00 0.01 0.00 0.00 0.01 0.00 0.00 0.00 0.00 0.00 0.01 0.00 0.00 0.00 0.00 0.00 0.00 0.00 0.00 0.00 0.00 0.00 0.00 0.00 0.00 0.00 0.00 0.00 0.00 0.00 0.00 0.00 0.00 0.00 0.00 0.00 0.00 0.00 0.00 0.00 0.00 0.00 0.01 0.00 0.03 0.02 0.01 0.00
0.00 0.00 0.00 0.01 0.01 0.01 0.03 0.03 0.01 0.01 0.01 0.01 0.01 0.00 0.00 0.00 0.01 0.01 0.01 0.00 0.00 0.00 0.00 0.00 0.00 0.00 0.00 0.00 0.00 0.00 0.00 0.00 0.00 0.00 0.00 0.00 0.00 0.00 0.00 0.00 0.00 0.00 0.00 0.00 0.01 0.05 0.14 0.11 0.05
MSLP
1011.61 1011.61 1011.72 1012.19 1013.85 1013.80 1012.80 1011.05 1009.34 1008.02 1007.08 1006.60 1006.22 1006.53 1007.67 1008.09 1008.47 1009.45 1009.17 1009.55 1009.86 1010.39 1010.73 1011.03 1011.35 1011.63 1012.00 1012.12 1012.36 1012.50 1012.52 1012.55 1012.67 1012.83 1013.12 1013.21 1013.38 1013.36 1013.47 1013.63 1013.58 1013.67 1013.76 1013.75 1013.84 1013.73 1013.74 1013.70 1013.67
1011.64 1011.68 1012.23 1013.18 1014.06 1014.01 1012.54 1010.42 1009.02 1007.89 1006.93 1006.75 1006.58 1007.29 1007.66 1008.22 1008.31 1009.09 1009.53 1009.55 1009.68 1010.15 1010.73 1011.08 1011.27 1011.55 1011.94 1012.21 1012.41 1012.65 1012.77 1012.81 1012.82 1012.90 1013.17 1013.35 1013.36 1013.42 1013.59 1013.69 1013.77 1013.78 1013.89 1014.05 1014.06 1013.95 1014.08 1014.03 1013.88
1011.48 1011.77 1013.34 1014.18 1014.49 1013.77 1012.09 1010.01 1008.62 1007.60 1006.90 1006.65 1006.97 1007.19 1007.54 1008.02 1008.16 1008.54 1008.67 1009.35 1009.94 1010.44 1010.68 1011.10 1011.33 1011.48 1011.78 1012.20 1012.43 1012.61 1012.80 1012.96 1012.96 1013.04 1013.24 1013.36 1013.40 1013.48 1013.72 1013.87 1013.87 1014.00 1014.01 1014.19 1014.24 1014.23 1014.31 1014.41 1014.05
1012.09 1012.76 1013.75 1014.23 1014.00 1012.51 1011.19 1009.59 1008.48 1007.72 1007.04 1006.90 1007.13 1007.68 1007.77 1007.64 1007.79 1008.00 1008.69 1009.33 1009.90 1010.56 1010.73 1010.98 1011.33 1011.54 1011.77 1011.98 1012.22 1012.48 1012.67 1012.90 1013.04 1013.17 1013.32 1013.42 1013.45 1013.46 1013.78 1013.85 1014.03 1014.17 1014.32 1014.42 1014.36 1014.43 1014.62 1014.72 1014.43
1012.73 1013.72 1014.41 1014.41 1013.61 1012.21 1010.54 1009.10 1008.09 1007.68 1007.38 1007.14 1007.19 1007.90 1008.06 1007.71 1007.69 1007.99 1008.64 1009.29 1009.74 1010.38 1010.65 1010.80 1011.08 1011.54 1011.84 1012.09 1012.26 1012.33 1012.50 1012.80 1012.97 1013.14 1013.37 1013.45 1013.54 1013.45 1013.66 1013.88 1014.19 1014.44 1014.62 1014.61 1014.67 1014.56 1014.73 1014.88 1014.86
1013.57 1014.26 1014.73 1014.34 1013.10 1011.52 1009.77 1008.50 1008.13 1007.64 1007.36 1007.12 1007.45 1007.97 1008.14 1007.66 1007.94 1008.31 1008.75 1009.33 1009.59 1010.12 1010.43 1010.84 1011.14 1011.25 1011.63 1012.02 1012.25 1012.43 1012.56 1012.64 1012.91 1013.17 1013.35 1013.59 1013.49 1013.63 1013.83 1014.02 1014.08 1014.50 1014.74 1014.81 1014.95 1014.95 1014.86 1015.06 1015.18
1013.77 1014.55 1014.49 1013.74 1012.51 1011.34 1009.79 1008.54 1008.06 1007.97 1007.63 1007.31 1007.45 1008.09 1008.37 1008.34 1008.12 1008.35 1008.88 1009.32 1009.67 1010.01 1010.36 1010.69 1011.06 1011.34 1011.60 1011.85 1012.28 1012.43 1012.61 1012.84 1012.95 1013.10 1013.44 1013.52 1013.59 1013.68 1013.97 1014.07 1014.28 1014.59 1014.82 1015.02 1015.12 1015.15 1015.04 1015.31 1015.44
1013.60 1014.47 1014.46 1013.40 1012.27 1010.94 1009.65 1008.66 1008.23 1008.04 1007.56 1007.02 1007.30 1008.15 1008.42 1008.06 1007.96 1008.42 1009.14 1009.52 1009.91 1010.24 1010.59 1010.87 1011.22 1011.32 1011.57 1011.85 1012.20 1012.54 1012.60 1012.85 1013.10 1013.22 1013.36 1013.62 1013.62 1013.78 1014.02 1014.13 1014.39 1014.65 1014.82 1015.10 1015.16 1015.27 1015.31 1015.54 1015.66
1013.00 1014.22 1014.34 1013.12 1012.11 1011.04 1010.08 1009.48 1008.55 1007.93 1007.61 1007.46 1007.54 1007.61 1007.26 1007.69 1008.09 1008.66 1009.36 1010.15 1010.27 1010.64 1010.62 1010.84 1011.13 1011.23 1011.55 1011.92 1012.17 1012.41 1012.66 1012.74 1013.10 1013.30 1013.28 1013.60 1013.69 1013.82 1014.11 1014.21 1014.48 1014.70 1014.77 1015.17 1015.21 1015.31 1015.38 1015.66 1015.80
1013.27 1013.95 1013.11 1011.94 1011.20 1010.75 1010.21 1010.02 1009.51 1008.93 1008.28 1007.91 1007.74 1007.49 1007.44 1007.58 1008.14 1008.65 1009.50 1010.02 1010.41 1010.63 1010.75 1010.86 1011.14 1011.35 1011.67 1011.87 1012.18 1012.46 1012.73 1012.88 1012.96 1013.30 1013.40 1013.58 1013.84 1013.90 1014.18 1014.27 1014.44 1014.72 1014.84 1015.09 1015.30 1015.37 1015.47 1015.65 1016.09
1013.07 1013.13 1012.43 1011.50 1010.92 1010.50 1010.20 1009.75 1009.48 1009.50 1009.10 1008.49 1008.35 1008.06 1007.92 1007.78 1008.06 1008.27 1008.77 1009.20 1009.63 1010.34 1010.65 1010.74 1010.90 1011.03 1011.40 1011.89 1012.23 1012.41 1012.62 1012.86 1013.10 1013.12 1013.54 1013.61 1013.90 1014.08 1014.39 1014.42 1014.51 1014.74 1015.02 1015.16 1015.32 1015.48 1015.64 1015.82 1016.34
1012.61 1012.07 1011.73 1011.11 1010.49 1010.50 1010.11 1009.47 1009.33 1009.37 1008.77 1008.56 1008.82 1008.57 1008.45 1008.30 1008.43 1008.18 1008.46 1008.88 1009.39 1009.61 1009.67 1010.12 1010.54 1010.83 1011.24 1011.48 1011.90 1012.11 1012.50 1012.70 1012.94 1012.99 1013.28 1013.61 1014.04 1014.06 1014.29 1014.43 1014.67 1014.76 1015.10 1015.35 1015.55 1015.78 1015.87 1015.96 1016.28
1012.47 1012.01 1011.46 1010.91 1010.46 1010.20 1009.89 1009.63 1009.59 1008.71 1008.26 1008.22 1008.10 1008.62 1008.54 1008.39 1008.07 1007.97 1007.88 1007.89 1008.30 1008.83 1009.05 1009.42 1010.16 1010.51 1010.87 1011.30 1011.72 1011.95 1012.21 1012.46 1012.64 1012.93 1013.25 1013.53 1013.92 1014.13 1014.16 1014.34 1014.65 1014.84 1015.14 1015.46 1015.61 1015.84 1016.06 1016.22 1016.20
1011.74 1011.55 1011.21 1010.69 1010.31 1010.21 1009.92 1009.58 1009.63 1007.86 1008.17 1008.29 1008.13 1007.89 1008.03 1008.06 1007.98 1007.79 1007.78 1007.91 1008.20 1008.15 1008.51 1008.91 1009.46 1010.18 1010.62 1010.95 1011.41 1011.82 1011.91 1012.15 1012.41 1012.74 1013.01 1013.24 1013.55 1013.87 1014.08 1014.34 1014.42 1014.82 1015.01 1015.42 1015.59 1015.76 1016.14 1016.43 1016.26
1011.99 1011.87 1011.30 1010.46 1010.20 1009.93 1009.52 1009.67 1009.14 1007.85 1008.19 1008.28 1008.14 1007.79 1007.44 1007.52 1007.33 1007.44 1007.19 1007.16 1007.29 1007.68 1007.86 1008.36 1008.90 1009.38 1010.12 1010.72 1011.07 1011.45 1011.68 1012.10 1012.37 1012.58 1012.76 1013.11 1013.38 1013.70 1013.87 1014.14 1014.58 1014.71 1015.04 1015.28 1015.61 1015.91 1016.22 1016.49 1016.41
1012.44 1012.30 1012.05 1010.98 1010.53 1009.65 1009.60 1009.13 1008.08 1007.62 1008.29 1008.38 1008.03 1007.70 1007.35 1007.14 1006.99 1006.66 1006.44 1006.43 1006.39 1006.63 1007.27 1007.76 1008.40 1009.02 1009.58 1010.31 1010.78 1011.23 1011.50 1011.87 1012.16 1012.44 1012.73 1012.87 1013.24 1013.51 1013.85 1014.32 1014.59 1014.67 1015.02 1015.22 1015.69 1016.05 1016.55 1016.82 1016.89
1013.33 1012.83 1012.30 1011.47 1010.44 1010.20 1010.22 1009.56 1008.51 1007.77 1007.99 1008.12 1007.76 1007.42 1007.32 1006.76 1006.31 1006.03 1006.01 1005.92 1005.82 1006.00 1006.44 1007.24 1007.90 1008.81 1009.23 1009.87 1010.46 1011.03 1011.30 1011.96 1012.16 1012.36 1012.62 1012.84 1013.18 1013.48 1013.84 1014.29 1014.55 1014.81 1015.09 1015.36 1015.73 1016.24 1016.54 1017.12 1017.37
1013.70 1013.48 1012.57 1011.67 1010.54 1010.08 1010.06 1009.57 1008.92 1008.27 1008.15 1007.91 1007.65 1007.24 1006.78 1006.41 1005.67 1005.15 1005.14 1004.96 1005.23 1005.47 1005.83 1006.32 1007.26 1008.11 1008.92 1009.85 1010.50 1011.12 1011.68 1012.21 1012.42 1012.70 1012.80 1012.91 1013.21 1013.61 1014.01 1014.24 1014.52 1014.83 1015.26 1015.62 1015.85 1016.31 1016.88 1017.30 1017.60
1013.46 1013.39 1012.90 1012.15 1011.02 1010.61 1010.02 1009.26 1009.15 1008.58 1008.35 1007.85 1007.45 1006.91 1006.34 1005.94 1004.88 1004.54 1004.62 1004.47 1004.88 1005.56 1005.85 1006.17 1007.05 1007.92 1008.77 1009.78 1010.55 1011.17 1011.44 1011.99 1012.40 1012.82 1012.97 1013.08 1013.37 1013.68 1014.00 1014.26 1014.64 1014.91 1015.27 1015.64 1016.07 1016.65 1017.04 1017.70 1017.83
1013.56 1013.44 1012.70 1011.74 1010.74 1010.45 1009.97 1008.70 1008.89 1008.65 1008.08 1007.38 1006.61 1006.01 1005.71 1005.29 1004.75 1004.16 1003.82 1004.17 1004.79 1004.75 1005.42 1005.77 1006.66 1007.30 1007.95 1008.93 1009.79 1010.26 1011.12 1011.81 1012.16 1012.64 1012.81 1012.94 1013.12 1013.50 1013.95 1014.27 1014.66 1015.00 1015.31 1015.72 1016.13 1016.39 1017.17 1017.67 1017.79
1012.81 1012.96 1012.40 1011.66 1010.93 1010.33 1010.05 1008.80 1008.57 1008.08 1007.34 1006.56 1005.71 1005.09 1004.87 1004.52 1004.07 1003.83 1003.68 1003.74 1004.26 1004.62 1005.07 1005.35 1006.04 1006.74 1007.53 1008.57 1009.61 1010.37 1011.12 1011.94 1012.50 1012.88 1013.06 1013.11 1013.19 1013.45 1013.71 1013.98 1014.43 1014.91 1015.21 1015.68 1016.03 1016.33 1016.68 1017.34 1017.83
1012.03 1011.81 1011.45 1011.42 1011.48 1011.01 1010.13 1009.44 1008.82 1007.94 1006.92 1006.11 1005.27 1004.87 1004.52 1004.01 1003.49 1003.27 1003.23 1003.33 1003.66 1004.21 1004.67 1004.77 1005.68 1006.55 1007.53 1008.31 1009.13 1009.89 1010.48 1011.64 1012.13 1012.46 1012.82 1013.11 1013.26 1013.50 1013.71 1013.80 1014.31 1014.83 1015.20 1015.55 1015.81 1016.28 1016.65 1016.93 1017.41
1011.73 1011.27 1011.35 1011.37 1011.57 1011.26 1011.01 1011.15 1008.40 1008.37 1007.69 1006.59 1005.73 1004.92 1004.52 1004.29 1004.08 1003.73 1003.02 1003.00 1003.60 1003.83 1004.51 1005.10 1005.89 1006.76 1007.54 1008.22 1008.99 1009.79 1010.54 1011.16 1011.80 1012.40 1012.90 1013.29 1013.47 1013.46 1013.58 1013.92 1014.18 1014.67 1015.03 1015.35 1015.52 1016.02 1016.45 1016.75 1017.02
1012.02 1011.74 1011.89 1011.93 1012.22 1011.93 1011.61 1011.41 1008.08 1009.25 1008.74 1007.64 1006.62 1005.43 1004.86 1004.84 1004.65 1004.50 1004.10 1003.76 1004.26 1004.71 1005.22 1005.41 1006.18 1007.34 1007.93 1008.49 1009.31 1009.88 1010.54 1011.21 1011.95 1012.60 1013.16 1013.33 1013.40 1013.50 1013.64 1013.85 1014.25 1014.48 1014.87 1015.10 1015.28 1015.70 1016.18 1016.56 1016.92
1013.04 1013.31 1014.60 1014.23 1013.59 1012.60 1011.61 1011.83 1009.64 1009.84 1010.28 1010.26 1008.20 1006.65 1005.90 1005.58 1005.42 1005.24 1005.03 1004.66 1004.74 1005.21 1006.04 1006.23 1006.84 1008.11 1008.60 1008.99 1009.62 1010.06 1010.69 1011.25 1011.69 1012.24 1012.77 1013.31 1013.57 1013.70 1013.88 1014.18 1014.53 1014.64 1014.75 1014.83 1015.12 1015.66 1016.09 1016.54 1016.93
1015.26 1015.52 1015.56 1015.75 1015.12 1014.26 1013.18 1012.00 1010.99 1011.19 1011.19 1010.12 1009.54 1008.63 1007.78 1007.52 1006.42 1005.95 1005.97 1005.71 1005.78 1005.75 1006.06 1007.12 1007.93 1008.59 1009.08 1009.40 1009.86 1010.24 1010.65 1011.23 1011.68 1012.13 1012.70 1013.25 1013.52 1013.67 1013.84 1014.24 1014.46 1014.52 1014.45 1014.87 1015.26 1015.72 1016.10 1016.44 1016.86
1016.95 1017.13 1017.50 1017.38 1016.34 1016.08 1013.84 1012.02 1011.30 1011.30 1011.47 1011.45 1011.40 1010.60 1009.95 1008.87 1008.31 1008.00 1007.01 1006.72 1006.78 1006.97 1007.43 1007.59 1008.49 1009.22 1009.61 1009.94 1010.22 1010.66 1011.05 1011.41 1011.88 1012.43 1012.78 1013.15 1013.42 1013.65 1013.88 1014.04 1014.28 1014.33 1014.60 1014.90 1015.28 1015.75 1016.05 1016.33 1016.60
1018.53 1018.98 1018.73 1018.52 1018.03 1016.75 1014.30 1013.22 1012.27 1012.43 1012.72 1013.17 1012.58 1012.11 1011.20 1009.99 1009.47 1009.20 1008.50 1008.10 1007.71 1007.90 1007.96 1008.17 1008.60 1009.37 1009.89 1010.39 1010.64 1011.03 1011.44 1011.70 1012.02 1012.46 1012.91 1013.17 1013.39 1013.57 1013.77 1014.03 1014.19 1014.34 1014.65 1014.91 1015.33 1015.75 1016.08 1016.34 1016.61
1019.80 1019.81 1019.84 1019.94 1019.46 1018.22 1016.49 1014.34 1013.78 1014.08 1014.16 1013.98 1013.44 1013.08 1012.19 1010.92 1010.59 1010.20 1009.30 1008.66 1008.69 1008.47 1008.51 1008.61 1008.86 1009.66 1010.19 1010.61 1011.10 1011.46 1011.77 1012.07 1012.38 1012.63 1012.96 1013.20 1013.54 1013.82 1013.95 1014.23 1014.38 1014.45 1014.62 1014.85 1015.27 1015.62 1015.93 1016.26 1016.55
1020.86 1021.42 1021.54 1021.53 1021.00 1020.11 1018.72 1015.66 1014.88 1014.57 1014.43 1014.46 1014.10 1013.38 1012.83 1011.41 1010.96 1010.33 1009.66 1009.10 1008.87 1009.13 1009.07 1009.26 1009.15 1010.02 1010.20 1011.06 1011.51 1011.69 1012.03 1012.32 1012.70 1013.04 1013.23 1013.57 1013.85 1014.00 1014.08 1014.28 1014.49 1014.54 1014.62 1014.79 1014.99 1015.46 1015.82 1016.14 1016.35
Thickness
5765 5765 5764 5756 5721 5714 5719 5739 5765 5770 5780 5794 5801 5792 5777 5779 5774 5758 5792 5793 5791 5787 5783 5781 5778 5775 5771 5770 5768 5767 5767 5767 5766 5764 5761 5760 5757 5757 5756 5753 5753 5752 5750 5750 5749 5751 5750 5750 5749
5765 5766 5758 5737 5707 5699 5716 5746 5759 5769 5787 5790 5791 5784 5781 5771 5787 5779 5780 5789 5789 5785 5780 5778 5776 5772 5769 5766 5765 5762 5762 5762 5762 5761 5758 5756 5755 5755 5753 5751 5749 5750 5748 5745 5745 5747 5745 5746 5746
5767 5765 5738 5716 5699 5701 5715 5751 5763 5775 5784 5788 5779 5788 5783 5775 5788 5784 5792 5788 5783 5780 5777 5773 5771 5770 5766 5762 5760 5759 5757 5757 5758 5757 5756 5754 5753 5751 5749 5747 5747 5745 5746 5743 5743 5742 5741 5740 5743
5756 5747 5734 5712 5708 5724 5737 5753 5767 5770 5780 5786 5780 5765 5782 5792 5789 5794 5792 5787 5782 5776 5772 5770 5767 5765 5762 5760 5758 5757 5755 5753 5753 5753 5752 5751 5750 5750 5746 5745 5743 5741 5741 5739 5740 5740 5736 5735 5737
5751 5733 5710 5707 5711 5725 5741 5756 5765 5765 5768 5773 5778 5760 5766 5787 5796 5793 5789 5784 5778 5773 5770 5768 5766 5761 5758 5756 5754 5754 5753 5751 5751 5750 5748 5747 5746 5748 5745 5742 5740 5737 5735 5736 5735 5737 5734 5732 5731
5729 5725 5703 5701 5715 5733 5746 5759 5761 5763 5766 5771 5764 5757 5762 5788 5787 5787 5785 5779 5777 5770 5767 5763 5760 5760 5756 5752 5751 5750 5749 5749 5748 5747 5745 5743 5744 5743 5740 5738 5738 5734 5731 5731 5730 5730 5732 5728 5725
5726 5711 5705 5713 5718 5727 5749 5763 5760 5755 5753 5758 5767 5745 5760 5769 5779 5780 5777 5774 5771 5767 5764 5761 5757 5755 5753 5751 5747 5746 5745 5744 5744 5743 5741 5741 5741 5740 5736 5735 5732 5729 5727 5726 5726 5726 5727 5723 5720
5727 5713 5711 5713 5717 5726 5748 5759 5763 5758 5757 5774 5769 5740 5745 5765 5775 5770 5766 5764 5763 5762 5758 5755 5751 5752 5750 5747 5744 5741 5740 5739 5738 5738 5738 5736 5737 5736 5733 5732 5728 5725 5723 5719 5721 5721 5720 5718 5715
5740 5703 5692 5710 5718 5724 5741 5739 5753 5763 5759 5762 5762 5758 5768 5768 5768 5759 5752 5749 5751 5751 5753 5749 5747 5748 5745 5742 5740 5737 5735 5735 5733 5732 5734 5732 5733 5732 5728 5727 5723 5721 5720 5715 5715 5715 5715 5712 5710
5720 5696 5706 5727 5737 5732 5736 5736 5737 5740 5742 5749 5754 5763 5766 5768 5762 5754 5743 5740 5739 5740 5743 5744 5741 5740 5738 5736 5735 5733 5730 5730 5731 5728 5728 5728 5727 5727 5722 5722 5720 5716 5715 5712 5710 5709 5708 5706 5704
5718 5704 5717 5727 5734 5737 5733 5731 5740 5731 5728 5738 5737 5747 5755 5760 5754 5753 5748 5745 5741 5737 5737 5738 5737 5735 5732 5729 5728 5728 5727 5725 5725 5725 5721 5723 5720 5720 5716 5715 5714 5712 5708 5707 5705 5704 5701 5699 5695
5714 5721 5724 5728 5731 5727 5726 5736 5730 5729 5735 5741 5737 5740 5745 5748 5747 5750 5746 5744 5741 5740 5740 5739 5735 5731 5728 5725 5723 5724 5722 5721 5720 5721 5719 5718 5714 5715 5711 5709 5707 5708 5703 5700 5698 5696 5694 5693 5690
5708 5715 5724 5727 5727 5723 5723 5720 5718 5729 5737 5737 5739 5734 5734 5738 5745 5746 5749 5749 5745 5741 5739 5738 5733 5728 5725 5722 5719 5719 5718 5716 5717 5715 5713 5712 5709 5710 5708 5706 5703 5701 5698 5693 5692 5690 5687 5686 5685
5716 5717 5716 5722 5720 5716 5713 5713 5714 5736 5730 5729 5732 5733 5731 5732 5737 5740 5741 5740 5740 5742 5738 5736 5733 5727 5722 5719 5717 5715 5714 5714 5713 5711 5710 5708 5707 5705 5703 5701 5699 5694 5691 5687 5685 5684 5681 5679 5678
5707 5699 5704 5712 5709 5707 5711 5701 5704 5724 5721 5717 5718 5725 5729 5727 5733 5733 5739 5740 5740 5741 5740 5736 5731 5729 5720 5716 5714 5713 5711 5709 5708 5707 5706 5703 5702 5700 5699 5698 5693 5690 5685 5681 5677 5675 5673 5671 5669
5687 5685 5672 5692 5695 5702 5697 5686 5708 5716 5707 5706 5709 5713 5716 5719 5723 5729 5735 5736 5737 5740 5738 5736 5733 5726 5722 5714 5711 5708 5707 5706 5704 5702 5701 5699 5697 5695 5692 5690 5687 5683 5678 5675 5671 5669 5663 5660 5658
5664 5653 5662 5669 5686 5683 5677 5673 5695 5704 5701 5698 5704 5708 5710 5713 5719 5724 5729 5731 5731 5732 5735 5732 5730 5720 5719 5714 5709 5704 5702 5699 5698 5696 5695 5694 5691 5687 5685 5682 5678 5675 5671 5668 5665 5660 5657 5650 5647
5641 5640 5649 5652 5666 5668 5661 5664 5676 5685 5686 5687 5691 5694 5700 5708 5717 5724 5725 5731 5730 5729 5731 5732 5728 5721 5714 5707 5704 5698 5694 5691 5689 5688 5688 5688 5685 5682 5679 5675 5672 5668 5663 5660 5657 5651 5646 5640 5636
5644 5636 5631 5639 5651 5645 5648 5655 5658 5669 5669 5673 5678 5684 5689 5698 5716 5721 5722 5726 5725 5721 5722 5725 5719 5715 5709 5701 5696 5691 5689 5686 5682 5679 5679 5679 5678 5675 5672 5669 5666 5662 5658 5655 5649 5641 5635 5629 5628
5626 5616 5619 5632 5641 5636 5638 5653 5651 5654 5660 5673 5679 5687 5686 5694 5702 5711 5719 5718 5715 5719 5717 5719 5715 5713 5709 5701 5696 5693 5687 5682 5679 5674 5672 5672 5671 5668 5664 5661 5658 5655 5650 5646 5640 5636 5628 5623 5621
5619 5604 5610 5615 5626 5626 5620 5634 5642 5653 5658 5667 5677 5683 5689 5695 5699 5705 5707 5710 5708 5710 5711 5712 5710 5708 5706 5697 5691 5686 5682 5675 5670 5667 5665 5665 5665 5664 5659 5655 5651 5647 5642 5636 5632 5629 5625 5618 5614
5605 5612 5613 5609 5603 5597 5614 5599 5633 5647 5655 5663 5671 5674 5677 5687 5695 5700 5702 5703 5703 5704 5706 5709 5704 5702 5696 5693 5687 5684 5679 5670 5667 5666 5663 5660 5657 5656 5654 5651 5646 5641 5635 5629 5626 5621 5618 5614 5609
5601 5611 5606 5608 5595 5595 5594 5583 5631 5634 5641 5655 5661 5669 5675 5679 5682 5689 5695 5696 5694 5697 5697 5696 5692 5689 5689 5686 5681 5676 5672 5669 5664 5660 5656 5651 5648 5648 5646 5642 5638 5634 5629 5624 5621 5616 5611 5609 5606
5597 5599 5594 5589 5580 5571 5587 5585 5633 5611 5621 5636 5649 5663 5669 5670 5673 5674 5679 5679 5676 5679 5681 5684 5682 5675 5676 5675 5671 5670 5667 5662 5657 5653 5648 5646 5644 5642 5640 5635 5630 5626 5621 5617 5615 5611 5607 5603 5600
5577 5570 5540 5547 5551 5565 5583 5572 5615 5609 5591 5599 5626 5643 5654 5659 5660 5662 5664 5667 5666 5665 5663 5668 5668 5660 5661 5663 5662 5662 5659 5657 5655 5650 5646 5641 5637 5634 5631 5627 5621 5617 5613 5611 5609 5605 5602 5598 5595
5547 5545 5536 5529 5535 5538 5560 5558 5588 5584 5586 5598 5605 5618 5629 5633 5644 5649 5650 5653 5654 5655 5652 5650 5650 5648 5648 5650 5651 5652 5652 5650 5648 5644 5640 5635 5632 5628 5626 5619 5614 5611 5609 5606 5603 5600 5597 5594 5590
5528 5519 5516 5510 5530 5520 5545 5571 5581 5578 5577 5580 5583 5591 5601 5614 5621 5625 5635 5637 5637 5638 5636 5636 5637 5635 5637 5639 5641 5642 5641 5642 5640 5635 5634 5630 5627 5623 5619 5614 5609 5608 5604 5601 5598 5594 5592 5590 5589
5508 5504 5499 5502 5494 5510 5537 5547 5565 5562 5558 5555 5563 5571 5578 5595 5603 5608 5617 5620 5622 5622 5625 5627 5630 5628 5628 5629 5631 5633 5632 5633 5632 5630 5627 5624 5621 5618 5615 5609 5606 5602 5598 5595 5591 5588 5586 5584 5584
5485 5481 5484 5471 5472 5480 5506 5528 5539 5535 5538 5540 5546 5554 5566 5577 5586 5590 5602 5607 5607 5611 5613 5616 5620 5619 5619 5621 5620 5622 5623 5624 5624 5624 5621 5619 5614 5611 5608 5603 5599 5596 5593 5590 5587 5584 5583 5580 5581
5463 5453 5444 5429 5427 5430 5442 5488 5504 5512 5515 5519 5527 5536 5546 5566 5573 5583 5592 5598 5599 5598 5601 5602 5610 5607 5613 5609 5610 5614 5615 5616 5616 5615 5613 5610 5607 5605 5603 5598 5594 5592 5589 5586 5583 5580 5580 5579 5580